When you browse on this site, cookies collect data to enhance your experience and personalize the content and advertising you see.
Visit our Privacy Policy to learn more. By continuing to use the site, you agree to this use of cookies and data.
  • In Hungary
  • List of Countries
  • For 7 days
  • Water Temperature
  • Satellite Maps
  • Weather Map
  • News
  • Weather Widgets
  • user-avatar
    Login

    Hourly Weather Shmoyly

    Today, 22 May, Wednesday

    Time Temperature Precipitation Wind Pressure Humidity
    00:00 +18°C° 0.8 mm 1 mps 752 mmHg 91%
    01:00 +16°C° 0.8 mm 1 mps 752 mmHg 93%
    02:00 +16°C° 0.8 mm 1 mps 752 mmHg 94%
    03:00 +16°C° 0.8 mm 1 mps 752 mmHg 94%
    04:00 +16°C° 0.8 mm 1 mps 752 mmHg 95%
    05:00 +16°C° 0.8 mm 1 mps 751 mmHg 95%
    06:00 +18°C° 0.1 mm 1 mps 751 mmHg 91%
    07:00 +18°C° 0.1 mm 2 mps 751 mmHg 87%
    08:00 +20°C° 0.1 mm 2 mps 751 mmHg 83%
    09:00 +21°C° 1.9 mm 2 mps 751 mmHg 81%
    10:00 +23°C° 1.9 mm 2 mps 751 mmHg 78%
    11:00 +23°C° 1.9 mm 2 mps 750 mmHg 75%
    12:00 +24°C° 0.2 mm 2 mps 750 mmHg 70%
    13:00 +25°C° 0.2 mm 2 mps 750 mmHg 65%
    14:00 +25°C° 0.2 mm 2 mps 750 mmHg 60%
    15:00 +25°C° 0 mm 1 mps 750 mmHg 59%
    16:00 +25°C° 0 mm 1 mps 749 mmHg 59%
    17:00 +25°C° 0 mm 1 mps 749 mmHg 59%
    18:00 +24°C° 0.2 mm 1 mps 749 mmHg 65%
    19:00 +20°C° 0.2 mm 0 mps 749 mmHg 72%
    20:00 +19°C° 0.2 mm 0 mps 749 mmHg 78%
    21:00 +18°C° 0 mm 0 mps 749 mmHg 82%
    22:00 +17°C° 0 mm 0 mps 749 mmHg 85%
    23:00 +16°C° 0 mm 0 mps 749 mmHg 88%

    Tomorrow, 23 May, Thursday

    Time Temperature Precipitation Wind Pressure Humidity
    00:00 +15°C° 0 mm 0 mps 749 mmHg 89%
    01:00 +16°C° 0 mm 1 mps 749 mmHg 91%
    02:00 +15°C° 0 mm 1 mps 749 mmHg 92%
    03:00 +15°C° 0 mm 1 mps 749 mmHg 93%
    04:00 +15°C° 0 mm 1 mps 749 mmHg 93%
    05:00 +15°C° 0 mm 1 mps 749 mmHg 93%
    06:00 +18°C° 0 mm 1 mps 749 mmHg 88%
    07:00 +20°C° 0 mm 1 mps 749 mmHg 82%
    08:00 +21°C° 0 mm 1 mps 749 mmHg 77%
    09:00 +23°C° 0 mm 2 mps 749 mmHg 69%
    10:00 +24°C° 0 mm 2 mps 749 mmHg 62%
    11:00 +25°C° 0 mm 2 mps 749 mmHg 55%
    12:00 +25°C° 0.3 mm 2 mps 749 mmHg 57%
    13:00 +25°C° 0.3 mm 2 mps 749 mmHg 59%
    14:00 +26°C° 0.3 mm 3 mps 749 mmHg 60%
    15:00 +25°C° 0.7 mm 2 mps 749 mmHg 65%
    16:00 +24°C° 0.7 mm 2 mps 749 mmHg 70%
    17:00 +23°C° 0.7 mm 2 mps 749 mmHg 75%
    18:00 +21°C° 0.2 mm 2 mps 749 mmHg 81%
    19:00 +20°C° 0.2 mm 2 mps 749 mmHg 86%
    20:00 +18°C° 0.2 mm 2 mps 749 mmHg 92%
    21:00 +17°C° 0 mm 2 mps 750 mmHg 93%
    22:00 +16°C° 0 mm 2 mps 750 mmHg 94%
    23:00 +15°C° 0 mm 2 mps 750 mmHg 95%

    Day after tomorrow, 24 May, Friday

    Time Temperature Precipitation Wind Pressure Humidity
    00:00 +15°C° 0 mm 2 mps 750 mmHg 96%
    01:00 +14°C° 0 mm 2 mps 751 mmHg 96%
    02:00 +13°C° 0 mm 2 mps 751 mmHg 97%
    03:00 +13°C° 0 mm 2 mps 751 mmHg 96%
    04:00 +13°C° 0 mm 2 mps 751 mmHg 95%
    05:00 +13°C° 0 mm 2 mps 751 mmHg 95%
    06:00 +14°C° 0 mm 2 mps 751 mmHg 92%
    07:00 +15°C° 0 mm 2 mps 751 mmHg 89%
    08:00 +16°C° 0 mm 2 mps 751 mmHg 86%
    09:00 +17°C° 0 mm 2 mps 751 mmHg 82%
    10:00 +18°C° 0 mm 2 mps 751 mmHg 78%
    11:00 +20°C° 0 mm 2 mps 750 mmHg 75%
    12:00 +20°C° 0.3 mm 2 mps 750 mmHg 75%
    13:00 +21°C° 0.3 mm 2 mps 750 mmHg 74%
    14:00 +21°C° 0.3 mm 2 mps 750 mmHg 74%
    15:00 +22°C° 0.9 mm 1 mps 749 mmHg 78%
    16:00 +21°C° 0.9 mm 1 mps 749 mmHg 82%
    17:00 +19°C° 0.9 mm 0 mps 749 mmHg 86%
    18:00 +18°C° 0.4 mm 0 mps 749 mmHg 87%
    19:00 +17°C° 0.4 mm 0 mps 748 mmHg 89%
    20:00 +16°C° 0.4 mm 0 mps 748 mmHg 91%
    21:00 +16°C° 0 mm 1 mps 748 mmHg 92%
    22:00 +16°C° 0 mm 1 mps 748 mmHg 93%
    23:00 +15°C° 0 mm 1 mps 748 mmHg 94%

    25 May, Saturday

    Time Temperature Precipitation Wind Pressure Humidity
    00:00 +15°C° 0 mm 1 mps 748 mmHg 95%
    01:00 +14°C° 0 mm 1 mps 748 mmHg 96%
    02:00 +14°C° 0 mm 1 mps 748 mmHg 97%
    03:00 +14°C° 0.1 mm 2 mps 748 mmHg 97%
    04:00 +14°C° 0.1 mm 2 mps 747 mmHg 97%
    05:00 +14°C° 0.1 mm 2 mps 747 mmHg 97%
    06:00 +14°C° 0.2 mm 2 mps 747 mmHg 96%
    07:00 +14°C° 0.2 mm 2 mps 747 mmHg 95%
    08:00 +13°C° 0.2 mm 2 mps 747 mmHg 93%
    09:00 +14°C° 0 mm 2 mps 747 mmHg 86%
    10:00 +16°C° 0 mm 2 mps 747 mmHg 78%
    11:00 +17°C° 0 mm 2 mps 747 mmHg 70%
    12:00 +18°C° 0 mm 3 mps 747 mmHg 63%
    13:00 +19°C° 0 mm 4 mps 746 mmHg 57%
    14:00 +20°C° 0 mm 4 mps 746 mmHg 50%
    15:00 +20°C° 0.1 mm 4 mps 746 mmHg 53%
    16:00 +19°C° 0.1 mm 4 mps 746 mmHg 56%
    17:00 +19°C° 0.1 mm 4 mps 745 mmHg 58%
    18:00 +17°C° 0.2 mm 4 mps 745 mmHg 67%
    19:00 +14°C° 0.2 mm 3 mps 745 mmHg 75%
    20:00 +13°C° 0.2 mm 3 mps 745 mmHg 83%
    21:00 +11°C° 0 mm 3 mps 745 mmHg 87%
    22:00 +10°C° 0 mm 3 mps 745 mmHg 91%
    23:00 +9°C° 0 mm 2 mps 745 mmHg 95%

    26 May, Sunday

    Time Temperature Precipitation Wind Pressure Humidity
    00:00 +9°C° 0 mm 3 mps 745 mmHg 95%
    01:00 +8°C° 0 mm 3 mps 745 mmHg 96%
    02:00 +8°C° 0 mm 3 mps 745 mmHg 97%
    03:00 +8°C° 0 mm 3 mps 745 mmHg 96%
    04:00 +8°C° 0 mm 3 mps 745 mmHg 95%
    05:00 +8°C° 0 mm 3 mps 745 mmHg 94%
    06:00 +8°C° 0 mm 3 mps 745 mmHg 91%
    07:00 +9°C° 0 mm 3 mps 745 mmHg 88%
    08:00 +10°C° 0 mm 4 mps 745 mmHg 85%
    09:00 +10°C° 0 mm 4 mps 745 mmHg 83%
    10:00 +11°C° 0 mm 4 mps 744 mmHg 81%
    11:00 +11°C° 0 mm 4 mps 744 mmHg 79%
    12:00 +12°C° 0.1 mm 4 mps 744 mmHg 78%
    13:00 +12°C° 0.1 mm 4 mps 744 mmHg 77%
    14:00 +13°C° 0.1 mm 5 mps 743 mmHg 76%
    15:00 +13°C° 0.3 mm 4 mps 743 mmHg 78%
    16:00 +12°C° 0.3 mm 4 mps 743 mmHg 81%
    17:00 +12°C° 0.3 mm 4 mps 743 mmHg 83%
    18:00 +11°C° 0.5 mm 3 mps 743 mmHg 86%
    19:00 +10°C° 0.5 mm 3 mps 743 mmHg 89%
    20:00 +9°C° 0.5 mm 3 mps 742 mmHg 91%
    21:00 +9°C° 0.3 mm 3 mps 742 mmHg 92%
    22:00 +8°C° 0.3 mm 3 mps 742 mmHg 93%
    23:00 +8°C° 0.3 mm 3 mps 742 mmHg 94%

    27 May, Monday

    Time Temperature Precipitation Wind Pressure Humidity
    00:00 +7°C° 0.1 mm 3 mps 742 mmHg 94%
    01:00 +5°C° 0.1 mm 3 mps 742 mmHg 94%
    02:00 +5°C° 0.1 mm 3 mps 741 mmHg 94%
    03:00 +5°C° 0 mm 3 mps 741 mmHg 95%
    04:00 +6°C° 0 mm 2 mps 741 mmHg 95%
    05:00 +7°C° 0 mm 2 mps 741 mmHg 96%
    06:00 +8°C° 0 mm 3 mps 741 mmHg 91%
    07:00 +9°C° 0 mm 3 mps 742 mmHg 87%
    08:00 +10°C° 0 mm 4 mps 742 mmHg 82%
    09:00 +10°C° 0.1 mm 4 mps 743 mmHg 82%
    10:00 +10°C° 0.1 mm 4 mps 743 mmHg 81%
    11:00 +11°C° 0.1 mm 4 mps 744 mmHg 80%
    12:00 +11°C° 0.2 mm 4 mps 744 mmHg 78%
    13:00 +12°C° 0.2 mm 4 mps 745 mmHg 76%
    14:00 +13°C° 0.2 mm 4 mps 745 mmHg 73%
    15:00 +13°C° 0.2 mm 4 mps 745 mmHg 70%
    16:00 +14°C° 0.2 mm 4 mps 746 mmHg 67%
    17:00 +15°C° 0.2 mm 4 mps 746 mmHg 64%
    18:00 +13°C° 0.1 mm 3 mps 746 mmHg 69%
    19:00 +13°C° 0.1 mm 2 mps 747 mmHg 74%
    20:00 +12°C° 0.1 mm 2 mps 747 mmHg 79%
    21:00 +11°C° 0 mm 1 mps 747 mmHg 82%
    22:00 +9°C° 0 mm 1 mps 748 mmHg 84%
    23:00 +8°C° 0 mm 1 mps 748 mmHg 87%
    Show more